Details From KOMK - Omak
To KMWH - Grant Co Intl
Flight Number -
Tags Generated
Created
Modified
Stats Distance 75 nm / 139 km
Max Altitude 0 ft / 0 m
Waypoints 2
Social Downloads 2
Likes 0
Share VATSIM

Download

Looking for another format? Having issues loading an existing format? Contact us
Advertisement - Login to hide

Notes

Generated

Route

KOMK KMWH

ID Type Via Altitude Latitude Longitude Leg Dist Tot Dist Heading (true) Name
O KOMK APT - 0 ft / 0 m 48.47073˚ -119.51653˚ - 0 nm - -
O KMWH APT - 0 ft / 0 m 47.22400˚ -119.33010˚ 75 nm 75 nm 174° / 174° -

Altitude Profile

Advertisement - Login to hide

KOMK

Details ICAO KOMK
Name OMAK
Region United States
Timezone America/Los_Angeles (UTC-7.0)
Stats Elevation 1,305 ft / 398 m (AMSL)
Location 48.464411° -119.518055°
Runways 1
Magnetic Variation 15.255° E

METAR

KOMK 261153Z AUTO 33013KT 10SM CLR 15/02 A2985 RMK AO2 SLP101 T01500022 10200 20144 51014

Decode

TAF

Not found

Departure Runways

ID Width Length Bearing (true) Bearing (mag) Surface Threshold Offset Overrun Length
17 150 ft / 46 m 4,667 ft / 1,422 m 189.09° 173.84° Asphalt 0 ft / 0 m 0 ft / 0 m
35 150 ft / 46 m 4,667 ft / 1,422 m 9.09° 353.84° Asphalt 0 ft / 0 m 0 ft / 0 m

KMWH

Details ICAO KMWH (MWH)
Name GRANT CO INTL
Region United States
Timezone America/Los_Angeles (UTC-7.0)
Stats Elevation 1,185 ft / 361 m (AMSL)
Location 47.210624° -119.321039°
Runways 5
Magnetic Variation 14.921° E

METAR

KMWH 261152Z AUTO 27007KT 10SM CLR 13/02 A2985 RMK AO2 SLP103 T01330017 10194 20133 53011

Decode

TAF

TAF KMWH 261132Z 2612/2712 26009KT P6SM FEW120 TEMPO 2614/2617 28011G16KT FM261800 24010G15KT P6SM SKC FM270300 27008KT P6SM SKC FM270900 28004KT P6SM FEW100

Decode

Destination Runways

ID Width Length Bearing (true) Bearing (mag) Surface Threshold Offset Overrun Length
04 100 ft / 30 m 9,983 ft / 3,043 m 54.09° 39.17° Asphalt 0 ft / 0 m 1,007 ft / 307 m
09 90 ft / 27 m 3,492 ft / 1,065 m 108.23° 93.31° Concrete 0 ft / 0 m 0 ft / 0 m
14L 200 ft / 61 m 13,504 ft / 4,116 m 162.17° 147.25° Asphalt 0 ft / 0 m 990 ft / 302 m
14R 75 ft / 23 m 2,938 ft / 895 m 162.18° 147.26° Concrete 0 ft / 0 m 0 ft / 0 m
18 75 ft / 23 m 3,307 ft / 1,008 m 198.10° 183.18° Asphalt 0 ft / 0 m 0 ft / 0 m
22 100 ft / 30 m 9,983 ft / 3,043 m 234.11° 219.19° Asphalt 0 ft / 0 m 1,052 ft / 321 m
27 90 ft / 27 m 3,492 ft / 1,065 m 288.24° 273.32° Concrete 0 ft / 0 m 0 ft / 0 m
32L 75 ft / 23 m 2,938 ft / 895 m 342.18° 327.26° Concrete 0 ft / 0 m 0 ft / 0 m
32R 200 ft / 61 m 13,504 ft / 4,116 m 342.19° 327.27° Asphalt 0 ft / 0 m 0 ft / 0 m
36 75 ft / 23 m 3,307 ft / 1,008 m 18.10° 3.18° Asphalt 0 ft / 0 m 0 ft / 0 m

Approach Navaids

Runway Type Ident Frequency Range Bearing (true) Bearing (mag) Slope Elevation
32R Localiser IMWH 109.50 MHz 18 nm / 33 km 342.17° 327.25° - 1,185 ft / 361 m (AMSL)
32R Glidescope IMWH 109.50 MHz 10 nm / 19 km 342.18° 327.26° 3.00° 1,163 ft / 354 m (AMSL)